{"data":{"norad_id":63710,"epoch":"2026-09-20T19:51:29.282400Z","epoch_age_seconds":124550,"freshness":"FRESH","line1":"1 63710U 25087P   26263.82742225  .00020138  00000+0  65928-3 0  9996","line2":"2 63710  53.1602  31.9166 0000731  97.3525 262.7560 15.31683722 79095","mean_motion":15.31683722,"eccentricity":7.31e-5,"inclination_deg":53.1602,"raan_deg":31.9166,"arg_perigee_deg":97.3525,"mean_anomaly_deg":262.756,"bstar":0.00065928,"rev_number":7909,"period_min":94.014187088162,"perigee_km":470.28786307087,"apogee_km":471.28917598183,"semimajor_km":6848.9255195263,"source":"CELESTRAK","updated_at":"2026-09-21T09:00:35.064796Z"}}